Location: Niles Junction
(37.5763°N, 121.9714°W)
Time: 13:41:47
(UTC+00:00)

Meteor 1-31 Rocket - Pass Details

Date: 29 October 2020
Orbit: 521 x 546 km, 97.6° (Epoch: 01 December)

Event Time Altitude Azimuth Distance (km) Brightness Sun altitude
Rises 13:41:08 0° 357° (N) 2,721 6.2 -10.4°
Reaches altitude 10° 13:43:33 10° 344° (NNW) 1,823 5.2 -9.9°
Maximum altitude 13:46:44 24° 290° (WNW) 1,159 3.9 -9.3°
Drops below altitude 10° 13:49:53 10° 236° (SW) 1,806 5.0 -8.6°
Sets 13:52:17 0° 222° (SW) 2,690 6.0 -8.2°
